STARLINK-11124, 59952

Orbit data source: Space-Track

STARLINK-11124, 59952 is a payload satellite owned by SpaceX/Seattle (US) in LEO that was launched on Wed, 05 Jun 2024 UTC via an FALCON 9 launch vehicle from the Air Force Eastern Test Range (AFETR). Payload-class satellites include a variety of spacecraft equipped with specific instruments for various scientific and technological missions. These include communications satellites like Starlink; space stations such as the ISS; scientific satellites like the Hubble; Earth observation satellites from companies like Planet Labs, Umbra, and HawkEye 360; GPS; miniature CubeSats for education and research; and military/defense satellites.

Loading next visibility...
Identifier
59952, 2024-107H
Orbit
LEO
Last TLE update
12 hours ago
Origin
Manufacturer
SpaceX/Seattle
Mission
Operational spacecraft
Bus & Motor
STARLINK V2M, Unknown motor
Mass
730 kg wet, ~700 kg dry
Launch date (UTC)
2024-06-05 (1 year ago)
Launch vehicle
FALCON 9
Launch site
Air Force Eastern Test Range (AFETR)
Object type
Payload
Rocket body
Debris
Shape & HBR
Unknown
Radar Cross Section
Large (>1 m²)

Expand to show TLE details & history

TLE from 12 hours ago
0 STARLINK-11124
1 59952U 24107H   25181.92885617 -.00002964  00000-0 -19641-4 0  9995
2 59952  53.1597  52.3873 0000614  67.7400 292.3683 15.69692289 62676
Epoch: 2025-06-30T22:17Z
TLE epoch observation values (Epoch: 2025-06-30T22:17:33.173Z)
Latitude
Longitude
158.76746°
Altitude
360.535 km
Speed
7.694 km/s
True Right ascension
03h 29m 32s
True Declination
0° 00' 00"
Sunlit
Object was in daylight at epoch
Visualization orbit readout
Latitude
-51.27613°
Longitude
44.64387°
Altitude
377.931 km
Speed
7.682 km/s
Apparent Right ascension
13h 41m 50s
Apparent Declination
-76° 20' 29"
Sunlit
Object is in full shadow
Visualization observer readout
Local Sidereal Time
21:43:02
Azimuth
196.952° SSW
Elevation
-45.635°
Doppler factor
1
Orbital elements
Apogee altitude
360.452 km
Perigee altitude
359.624 km
Semi-major axis
6,738.175 km
Eccentricity
0.00006
Inclination
53.1597°
RAAN
52.3873°
Arg. of periapsis
67.74°
True anomaly
Unknown
Mean anomaly
292.3683°
Eccentric anomaly
Unknown
Mean motion
3.92401 °/min
Orbital period
91.74 mins
BSTAR
-0.000019641
Loading maneuver chart data...
Loading SW <> Apogee altitude chart data...
Loading historical data...
Loading historical data...
Loading historical data...
Loading historical data...
Loading historical data...
Loading historical data...
Loading historical data...

STARLINK-11124 Visibility forecast

Observer location: undefined°, undefined°

Span
Click to sort rows by Start time (UTC) header in descending order
Start Az.
Max El. time (UTC)
Max El. Az.
Max El.
End time (UTC)
End Az.
4 mins2025-07-02 00:46:39.353Z313.742° NW2025-07-02 00:48:39.353Z110.747° ESE42.26°2025-07-02 00:50:39.353Z127.288° SE
|